FW0392 Weather Reports


time (UTC)temp
C
wind
direction
speed
KPH
gust
KPH
rain 1hr
cm
rain 24hr
cm
rain mn
cm
humidity
%
barometer
mb
20260503183044 20 360 0.0 1.6 0.00 0.00 0.00 53 1015.4
20260503181544 21 360 0.0 1.6 0.00 0.00 0.00 52 1015.3
20260503180040 21 28 0.0 0.0 0.00 0.00 0.00 49 1015.2
20260503174538 22 188 0.0 1.6 0.00 0.00 0.00 47 1015.2
20260503173038 22 174 0.0 1.6 0.00 0.00 0.00 46 1015.1
20260503171534 23 240 0.0 0.0 0.00 0.00 0.00 45 1015.2
20260503100110 20 51 0.0 9.7 0.00 0.00 0.00 58 1018.2
20260503081536 20 13 0.0 3.2 0.00 0.00 0.00 60 1018.7
20260503071516 19 194 0.0 4.8 0.00 0.00 0.00 54 1018.8
20260503060114 15 169 0.0 1.6 0.00 0.00 0.00 67 1018.6
20260503054601 13 141 0.0 0.0 0.00 0.00 0.00 70 1018.5
20260503053043 12 12 0.0 3.2 0.00 0.00 0.00 73 1018.6
20260503051537 11 12 0.0 0.0 0.00 0.00 0.00 74 1018.5
20260503050037 10 13 0.0 1.6 0.00 0.00 0.00 75 1018.5
20260503044534 10 147 0.0 4.8 0.00 0.00 0.00 75 1018.4
20260503043030 10 135 0.0 0.0 0.00 0.00 0.00 75 1018.4
20260503041529 10 144 0.0 1.6 0.00 0.00 0.00 75 1018.4
20260503040034 10 144 0.0 4.8 0.00 0.00 0.00 76 1018.4
20260503034527 10 178 0.0 0.0 0.00 0.00 0.00 76 1018.3
20260503033028 10 167 0.0 3.2 0.00 0.00 0.00 76 1018.3
20260503031521 10 147 0.0 0.0 0.00 0.00 0.00 76 1018.4
20260503030025 10 134 0.0 1.6 0.00 0.00 0.00 76 1018.5
20260503024520 10 150 0.0 3.2 0.00 0.00 0.00 76 1018.5
20260503023017 10 143 0.0 0.0 0.00 0.00 0.00 76 1018.5
20260503021515 10 148 0.0 0.0 0.00 0.00 0.00 75 1018.6
20260503020014 10 132 0.0 0.0 0.00 0.00 0.00 76 1018.7
20260503014515 10 136 0.0 1.6 0.00 0.00 0.00 76 1018.7
20260503013009 11 142 0.0 0.0 0.00 0.00 0.00 75 1018.8
20260503011511 11 135 0.0 3.2 0.00 0.00 0.00 75 1019.0
20260503010007 11 143 0.0 6.4 0.00 0.00 0.00 75 1019.0
20260503004506 11 140 0.0 3.2 0.00 0.00 0.00 76 1019.1
20260503003003 11 138 0.0 0.0 0.00 0.00 0.00 75 1019.1
20260503001501 11 153 0.0 0.0 0.00 0.00 0.00 75 1019.3
20260503000059 11 143 0.0 0.0 0.00 0.00 0.00 74 1019.4
20260502234601 11 145 0.0 0.0 0.00 0.00 0.00 73 1019.5
20260502233052 11 20 0.0 0.0 0.00 0.00 0.00 72 1019.7
20260502231601 12 19 0.0 0.0 0.00 0.00 0.00 72 1019.8
20260502230048 12 19 0.0 0.0 0.00 0.00 0.00 72 1019.9
20260502224547 12 21 0.0 0.0 0.00 0.00 0.00 71 1020.1
20260502223045 12 18 0.0 1.6 0.00 0.00 0.00 71 1020.0
20260502221541 12 17 0.0 0.0 0.00 0.00 0.00 69 1020.1
20260502220037 12 18 0.0 1.6 0.00 0.00 0.00 68 1020.1
20260502214542 12 16 0.0 0.0 0.00 0.00 0.00 67 1020.3
20260502213036 12 14 0.0 0.0 0.00 0.00 0.00 68 1020.4
20260502211537 12 13 0.0 0.0 0.00 0.00 0.00 67 1020.4
20260502210035 13 11 0.0 0.0 0.00 0.00 0.00 68 1020.4
20260502204534 13 11 0.0 0.0 0.00 0.00 0.00 65 1020.5
20260502203032 13 9 0.0 0.0 0.00 0.00 0.00 61 1020.6
20260502201530 14 11 0.0 0.0 0.00 0.00 0.00 59 1020.5
20260502200030 15 15 0.0 0.0 0.00 0.00 0.00 59 1020.4
20260502194529 15 360 0.0 1.6 0.00 0.00 0.00 57 1020.5
20260502193029 16 360 0.0 0.0 0.00 0.00 0.00 55 1020.4
20260502191526 16 360 0.0 0.0 0.00 0.00 0.00 53 1020.3
20260502190026 17 360 0.0 0.0 0.00 0.00 0.00 49 1020.1
20260502184525 17 360 0.0 0.0 0.00 0.00 0.00 46 1020.0